Location: Newark
(42.7336°N, 84.5467°W)
Time: 16:31:15
(UTC+00:00)

Envisat - Visible Passes

Search period start: 26 September 2020 00:00
Search period end: 06 October 2020 00:00
Orbit: 764 x 766 km, 98.1° (Epoch: 26 September)

Date Brightness Start Highest point End Pass type
(mag) Time Alt. Az. Time Alt. Az. Time Alt. Az.
27 Sep 6.2 00:10:59 10° SW 00:14:08 16° W 00:17:19 10° NW visible
27 Sep 6.0 10:38:44 10° NE 10:42:24 20° E 10:46:03 10° SE visible
29 Sep 5.1 11:03:26 10° NNE 11:08:03 34° E 11:12:37 10° SSE visible
29 Sep 6.0 23:58:53 10° SW 00:02:40 21° W 00:06:27 10° NW visible
30 Sep 6.2 10:27:55 10° NE 10:30:55 16° E 10:33:55 10° SE visible
02 Oct 6.6 00:26:39 10° WSW 00:28:24 12° W 00:30:09 10° WNW visible
02 Oct 5.5 10:52:18 10° NE 10:56:36 27° E 11:00:52 10° SSE visible
02 Oct 5.6 23:47:00 10° SSW 23:51:12 26° W 23:55:27 10° NW visible
03 Oct 6.4 10:17:27 10° ENE 10:19:25 12° E 10:21:22 10° ESE visible
05 Oct 6.3 00:14:01 10° SW 00:16:54 15° W 00:19:47 10° NW visible
05 Oct 5.9 10:41:17 10° NE 10:45:09 21° E 10:48:59 10° SE visible
05 Oct 5.1 23:35:13 10° SSW 23:39:45 33° W 23:44:20 10° NNW visible
